Change the Weather History Date:

Thursday, January 16, 2014

  Actual Average Record
Temperature  
Mean Temperature 40 °F -  
Max Temperature 50 °F 39 °F 62 °F (1986)
Min Temperature 28 °F 17 °F -4 °F (1977)
Degree Days  
Heating Degree Days 25    
Moisture  
Dew Point 16 °F    
Average Humidity 41    
Maximum Humidity 66    
Minimum Humidity 15    
Precipitation  
Precipitation 0.00 in - - ()
Sea Level Pressure  
Sea Level Pressure 30.06 in    
Wind  
Wind Speed 18 mph (NW)    
Max Wind Speed 38 mph    
Max Gust Speed 52 mph    
Visibility 10 miles    
Events      
Averages and records for this station are not official NWS values.
T = Trace of Precipitation, MM = Missing Value Source: NWS Daily Summary

Daily Weather History Graph

Daily Weather History Graph

Search for Another Location

Airport or City:

Trip Planner

Search our weather history database for the weather conditions in past years. The results will help you decide how hot, cold, wet, or windy it might be!

Date:

Astronomy

Jan. 16, 2014 Rise Set
Actual Time 7:51 AM CST 5:38 PM CST
Civil Twilight 7:22 AM CST 6:07 PM CST
Nautical Twilight 6:49 AM CST 6:40 PM CST
Astronomical Twilight 6:18 AM CST 7:12 PM CST
Moon 6:30 PM CST (1/16) 7:47 AM CST (1/16)
Length of Visible Light 10h 45m
Length of Day
9h 46m
Full, 100% of the Moon is Illuminated
Jan 16
Full
Jan 23
Last Quarter
Jan 30
New
Feb 6
First Quarter
Feb 14
Full

Hourly Weather History & Observations

Time (CST) Temp. Windchill Dew Point Humidity Pressure Visibility Wind Dir Wind Speed Gust Speed Precip Events Conditions
12:53 AM 39.0 °F 32.8 °F 23.0 °F 53% 29.92 in 10.0 mi WNW 9.2 mph - N/A   Clear
1:53 AM 35.1 °F 27.4 °F 21.9 °F 59% 29.92 in 10.0 mi WNW 10.4 mph - N/A   Clear
2:53 AM 37.9 °F 30.0 °F 21.9 °F 53% 29.95 in 10.0 mi NW 12.7 mph - N/A   Clear
3:53 AM 33.1 °F 23.9 °F 21.9 °F 64% 29.97 in 10.0 mi NW 12.7 mph - N/A   Clear
4:53 AM 32.0 °F 23.6 °F 21.9 °F 66% 30.00 in 10.0 mi NW 10.4 mph - N/A   Clear
5:53 AM 37.9 °F 28.5 °F 24.1 °F 57% 30.00 in 10.0 mi NW 17.3 mph - N/A   Partly Cloudy
6:53 AM 43.0 °F 33.3 °F 23.0 °F 45% 30.01 in 10.0 mi NW 25.3 mph 35.7 mph N/A   Mostly Cloudy
7:53 AM 41.0 °F 31.4 °F 23.0 °F 49% 30.05 in 10.0 mi NW 21.9 mph 31.1 mph N/A   Clear
8:53 AM 41.0 °F 32.2 °F 23.0 °F 49% 30.07 in 10.0 mi WNW 18.4 mph - N/A   Clear
9:53 AM 44.1 °F 35.4 °F 23.0 °F 43% 30.08 in 10.0 mi NW 21.9 mph 32.2 mph N/A   Clear
10:53 AM 46.0 °F 37.2 °F 19.9 °F 35% 30.07 in 10.0 mi WNW 26.5 mph 35.7 mph N/A   Clear
11:53 AM 48.0 °F - 15.1 °F 27% 30.05 in 10.0 mi WNW 31.1 mph 42.6 mph N/A   Clear
12:53 PM 50.0 °F - 10.0 °F 20% 30.01 in 10.0 mi NW 28.8 mph 44.9 mph N/A   Clear
1:53 PM 50.0 °F - 7.0 °F 18% 30.00 in 10.0 mi NW 34.5 mph 51.8 mph N/A   Mostly Cloudy
2:53 PM 50.0 °F - 3.0 °F 15% 30.00 in 8.0 mi NNW 38.0 mph 51.8 mph N/A   Overcast
3:53 PM 48.0 °F - 5.0 °F 17% 30.04 in 10.0 mi NNW 34.5 mph 47.2 mph N/A   Overcast
4:53 PM 45.0 °F 34.7 °F 6.1 °F 20% 30.06 in 10.0 mi NW 33.4 mph 43.7 mph N/A   Overcast
5:53 PM 41.0 °F 30.7 °F 10.9 °F 29% 30.09 in 10.0 mi North 25.3 mph 35.7 mph N/A   Overcast
6:53 PM 37.0 °F 27.0 °F 12.9 °F 37% 30.13 in 10.0 mi NNW 18.4 mph - N/A   Partly Cloudy
7:53 PM 35.1 °F 23.3 °F 14.0 °F 42% 30.17 in 10.0 mi NNW 23.0 mph 28.8 mph N/A   Clear
8:53 PM 34.0 °F 22.1 °F 12.0 °F 40% 30.20 in 10.0 mi NNW 21.9 mph 33.4 mph N/A   Clear
9:53 PM 30.9 °F 19.8 °F 10.9 °F 43% 30.23 in 10.0 mi NNW 16.1 mph - N/A   Scattered Clouds
10:53 PM 30.0 °F 18.3 °F 12.0 °F 47% 30.24 in 10.0 mi NNW 17.3 mph - N/A   Clear
11:53 PM 28.0 °F 16.5 °F 12.9 °F 53% 30.25 in 10.0 mi NNW 15.0 mph - N/A   Clear